{"data":{"norad_id":66373,"intl_designator":"2025-254AB","name":"STARLINK-35809","alt_names":[],"object_type":"PAYLOAD","status":"ACTIVE","operator":null,"country":"US","launch_date":"2025-11-06","launch_site_code":"AFWTR","launch_vehicle":null,"mission":null,"orbit_class":"UNKNOWN","rcs_meters":null,"size_class":null,"mass_kg":null,"dimensions":null,"purposes":["comms"],"wikipedia_slug":null,"has_3d_model":false,"image_url":null,"decayed_at":null,"tle_current":{"epoch":"2026-09-20T16:38:37.717440Z","epoch_age_seconds":76743,"freshness":"FRESH","line1":"1 66373U 25254AB  26263.69349210  .00016914  00000+0  51049-3 0  9998","line2":"2 66373  53.1554  42.9467 0001305  93.4470 266.6682 15.34406493 48881","mean_motion":15.34406493,"eccentricity":0.0001305,"inclination_deg":53.1554,"raan_deg":42.9467,"arg_perigee_deg":93.447,"mean_anomaly_deg":266.6682,"bstar":0.00051049,"rev_number":4888,"period_min":93.847360954826,"perigee_km":461.79121457793,"apogee_km":463.57666884372,"semimajor_km":6840.8209417108,"source":"CELESTRAK","updated_at":"2026-09-21T09:00:35.884305Z"}}}